{"data":{"norad_id":58274,"epoch":"2026-06-13T18:54:27.347328Z","epoch_age_seconds":8546983,"freshness":"OLD","line1":"1 58274U 23174U   26164.78781652  .00035696  00000+0  47446-3 0  9992","line2":"2 58274  97.3859 257.0767 0007440 156.1933 203.9668 15.58090395145308","mean_motion":15.58090395,"eccentricity":0.000744,"inclination_deg":97.3859,"raan_deg":257.0767,"arg_perigee_deg":156.1933,"mean_anomaly_deg":203.9668,"bstar":0.00047446,"rev_number":14530,"period_min":92.420825172984,"perigee_km":388.14622133582,"apogee_km":398.22194710915,"semimajor_km":6771.3210842225,"source":"CELESTRAK","updated_at":"2026-06-14T09:00:51.996259Z"}}